TimeCDT,TemperatureF,Dew PointF,Humidity,Sea Level PressureIn,VisibilityMPH,Wind Direction,Wind SpeedMPH,Gust SpeedMPH,PrecipitationIn,Events,Conditions,WindDirDegrees,DateUTC
12:53 AM,35.1,17.1,48,30.28,10.0,NNE,5.8,-,N/A,,Overcast,30,2013-04-10 05:53:00
1:53 AM,35.1,17.1,48,30.25,10.0,NE,8.1,-,N/A,,Mostly Cloudy,40,2013-04-10 06:53:00
2:53 AM,34.0,16.0,48,30.21,10.0,NNE,12.7,-,N/A,,Mostly Cloudy,20,2013-04-10 07:53:00
3:53 AM,33.1,15.1,48,30.20,10.0,NNE,13.8,-,N/A,,Mostly Cloudy,30,2013-04-10 08:53:00
4:53 AM,33.1,14.0,46,30.22,10.0,NNE,12.7,-,N/A,,Overcast,20,2013-04-10 09:53:00
5:53 AM,32.0,12.9,45,30.18,10.0,NE,13.8,20.7,N/A,,Overcast,50,2013-04-10 10:53:00
6:53 AM,32.0,12.9,45,30.17,10.0,ENE,12.7,-,N/A,,Overcast,60,2013-04-10 11:53:00
7:53 AM,32.0,15.1,50,30.20,10.0,NE,10.4,-,N/A,,Overcast,50,2013-04-10 12:53:00
8:53 AM,32.0,14.0,48,30.21,10.0,NNE,11.5,-,N/A,,Overcast,30,2013-04-10 13:53:00
9:53 AM,35.1,15.1,44,30.21,10.0,NE,13.8,-,N/A,,Clear,40,2013-04-10 14:53:00
10:53 AM,37.0,14.0,39,30.20,10.0,NE,13.8,20.7,N/A,,Mostly Cloudy,40,2013-04-10 15:53:00
11:53 AM,37.0,14.0,39,30.19,10.0,ENE,16.1,25.3,N/A,,Mostly Cloudy,60,2013-04-10 16:53:00
1:53 PM,39.9,12.9,33,30.14,10.0,NE,20.7,25.3,N/A,,Overcast,50,2013-04-10 18:53:00
2:53 PM,42.1,12.0,29,30.19,10.0,ENE,10.4,-,N/A,,Overcast,60,2013-04-10 19:53:00
3:53 PM,42.1,10.9,28,30.14,10.0,ENE,15.0,21.9,N/A,,Overcast,70,2013-04-10 20:53:00
4:53 PM,42.1,12.0,29,30.10,10.0,ENE,9.2,17.3,N/A,,Overcast,70,2013-04-10 21:53:00
5:53 PM,41.0,12.0,31,30.12,10.0,East,8.1,-,N/A,,Overcast,100,2013-04-10 22:53:00
6:53 PM,39.9,12.0,32,30.10,10.0,East,9.2,17.3,N/A,,Mostly Cloudy,80,2013-04-10 23:53:00
7:53 PM,37.9,10.9,33,30.09,10.0,ENE,8.1,-,N/A,,Overcast,70,2013-04-11 00:53:00
8:53 PM,37.0,10.9,34,30.05,10.0,ENE,12.7,24.2,N/A,,Overcast,60,2013-04-11 01:53:00
9:53 PM,36.0,10.9,36,30.03,10.0,ENE,18.4,25.3,N/A,,Overcast,60,2013-04-11 02:53:00
10:53 PM,37.0,10.0,33,30.06,10.0,ENE,11.5,20.7,N/A,,Overcast,70,2013-04-11 03:53:00
11:53 PM,36.0,10.9,36,30.06,10.0,ENE,13.8,26.5,N/A,,Overcast,70,2013-04-11 04:53:00